CAPE
1977 2185 2397 2538 2696 2774 2894 3043 2711 2360 2320 2097 1248 1264 1200 1095 970 664 476 170 2 0 0 0 0 0 0 0 0 0 0 0 0 20 2 4 3 0 3 0 0 0 2
2229 2452 2657 2633 2813 2703 2848 2920 2675 2522 2202 1722 1380 1307 1124 930 798 569 178 48 13 5 0 0 0 0 0 0 0 0 0 0 0 0 0 0 0 0 0 0 0 0 0
2371 2475 2479 2730 2780 2729 2856 2854 2583 2517 2013 1628 1455 1302 1073 827 652 423 195 52 10 0 0 0 0 0 0 0 0 0 0 0 0 0 0 0 0 0 0 0 0 0 0
2254 2342 2533 2831 2844 2773 2931 2821 2601 2382 1949 1703 1320 1187 976 743 498 316 171 46 0 0 0 0 0 0 0 0 0 0 0 0 0 0 0 0 0 0 0 0 0 0 0
2499 2576 2765 3009 3083 3105 3608 2851 2672 2123 1864 1705 1396 1161 911 571 381 332 176 37 0 0 0 0 0 0 0 0 0 2 3 5 1 0 0 0 0 0 0 0 0 0 0
2809 2726 3207 3784 3909 3949 3167 2822 2492 2213 2013 1762 1119 897 724 374 2 0 30 6 0 0 0 0 0 0 0 0 0 0 0 9 16 4 0 0 1 3 3 10 15 8 2
3238 3157 3534 3638 3483 3351 2763 2283 2390 2167 1311 998 955 649 628 121 0 0 0 0 0 0 0 2 1 2 0 8 5 0 0 0 0 0 0 0 0 1 1 19 35 37 32
3442 3503 3327 3116 2755 2156 2344 2003 2112 1037 733 570 675 676 205 5 0 0 0 0 0 0 0 0 0 0 0 0 0 19 33 33 26 19 0 0 2 4 7 24 46 70 56
3452 3080 2752 1699 170 0 0 0 424 669 302 203 167 69 49 0 0 0 0 0 0 0 0 0 0 0 0 0 0 0 14 20 4 0 0 0 0 0 0 0 5 25 24
2136 1331 49 0 0 0 0 0 419 527 118 0 0 0 0 0 0 0 0 0 0 0 0 0 0 0 0 0 0 5 16 28 29 31 27 22 19 39 3 14 15 45 31
40 0 54 4 1 0 44 37 185 19 1 0 0 0 0 0 0 0 0 0 0 0 0 0 0 0 0 0 0 0 2 2 0 0 11 29 42 51 78 40 89 84 86
238 377 310 169 66 18 410 38 7 8 2 0 0 0 0 0 0 0 0 0 0 0 0 0 0 0 0 0 0 0 0 0 0 6 18 23 36 38 48 80 96 89 77
986 114 477 73 161 227 164 23 4 1 5 4 0 0 0 0 0 0 0 0 0 0 0 0 0 0 0 0 0 0 0 0 14 13 9 22 35 44 48 49 56 176 120
1115 766 285 244 482 298 173 113 6 4 1 0 0 0 0 0 0 0 0 0 0 0 0 0 0 0 0 0 1 9 38 41 14 4 33 43 40 42 45 31 15 8 16
659 464 552 456 358 464 368 335 321 215 117 1 0 0 0 0 0 0 11 22 8 0 0 4 0 7 26 28 37 35 28 14 16 40 38 23 28 23 19 22 15 14 17
685 502 411 289 176 137 21 0 0 0 0 0 0 0 0 0 0 0 0 0 0 0 0 0 5 13 20 25 22 7 2 1 29 21 21 20 33 20 7 9 7 12 12
908 301 287 104 84 378 342 82 0 0 0 0 0 0 0 0 0 0 0 0 0 0 0 0 9 16 23 20 2 0 0 11 9 19 14 18 7 9 6 9 8 9 11
707 193 403 358 264 200 116 380 162 0 0 0 0 0 0 0 0 0 0 0 0 0 0 6 14 10 8 0 0 0 0 6 15 11 12 8 5 5 6 4 7 9 6
646 434 714 519 296 191 612 564 142 0 0 0 0 0 0 0 0 0 0 0 0 6 9 11 4 0 0 0 0 0 8 16 10 10 14 9 3 4 2 1 0 1 0
253 326 525 542 243 360 709 378 8 0 0 0 0 0 0 0 0 0 0 1 15 11 13 1 0 0 0 0 0 5 17 14 3 8 14 6 3 1 3 0 0 4 9
482 240 393 349 194 601 373 122 0 0 0 0 0 0 0 0 0 5 13 35 24 6 0 0 0 0 0 0 1 9 18 20 6 6 11 12 3 3 2 0 3 5 5
12 3 8 129 353 808 312 37 0 0 0 0 0 0 0 0 1 4 23 27 8 0 0 0 0 0 0 0 11 13 7 8 9 7 15 5 3 5 0 0 8 12 6
16 3 3 293 867 90 83 10 0 0 0 0 0 0 0 0 3 16 28 6 0 0 0 0 0 0 0 9 11 1 11 7 8 10 9 3 6 1 0 2 6 11 14
29 35 64 232 73 43 0 0 0 0 0 0 0 0 0 2 27 32 8 0 0 0 0 0 0 0 5 12 9 6 2 2 7 10 4 3 5 0 7 13 13 24 24
26 7 0 0 0 0 0 0 0 0 0 0 0 0 2 15 23 9 0 0 0 0 0 0 0 0 12 6 6 5 0 0 2 0 0 3 3 5 5 8 31 57 72
4 10 7 1 1 0 0 0 0 0 0 0 0 1 8 23 8 1 0 0 0 0 0 0 1 10 5 4 0 0 0 0 0 0 0 0 0 1 3 10 27 64 84
CIN
-71 -86 -93 -94 -94 -76 -45 -25 -19 -27 -15 -5 -35 -12 -6 -5 -4 -3 -8 -57 0 0 0 0 0 0 0 0 0 0 0 0 0 0 0 0 0 0 0 0 0 -4 0
-80 -98 -108 -98 -94 -79 -56 -25 -25 -20 -27 -26 -26 -14 -14 -11 -15 -15 -74 -135 -102 0 0 0 0 0 0 0 0 0 0 0 0 0 0 0 0 0 0 0 0 0 0
-97 -102 -91 -93 -89 -71 -54 -29 -28 -25 -39 -31 -28 -21 -14 -17 -13 -16 -60 -106 0 0 0 0 0 0 0 0 0 0 0 0 0 0 0 0 0 0 0 0 0 0 0
-113 -103 -88 -100 -92 -63 -39 -34 -31 -45 -62 -41 -25 -9 -7 -18 -25 -28 -42 -97 0 0 0 0 0 0 0 0 0 0 0 0 0 0 0 0 0 0 0 0 0 0 0
-160 -116 -103 -92 -78 -62 -26 -42 -22 -46 -39 -18 -12 -12 -20 -27 -38 -36 -69 -121 0 0 0 0 0 0 0 0 0 -1 0 0 0 0 0 0 0 0 0 0 0 0 0
-163 -134 -117 -93 -82 -53 -87 -75 -61 -48 -35 -3 -8 -11 -20 -54 -93 0 -100 0 0 0 0 0 0 0 0 0 0 0 0 0 0 0 0 0 0 0 0 0 0 0 0
-148 -135 -116 -118 -112 -104 -105 -85 -22 -18 -71 -78 -83 -23 -2 -105 0 0 0 0 0 0 0 0 0 0 0 0 -4 0 0 0 0 0 0 0 0 0 0 0 0 0 0
-141 -100 -99 -96 -80 -59 -26 -11 -33 -106 -93 -83 -93 -27 -39 -101 0 0 0 0 0 0 0 0 0 0 0 0 0 0 0 0 -2 -1 0 0 -1 -5 -8 0 0 0 -1
-107 -122 -108 -186 -49 0 0 0 -81 -80 -129 -142 -159 -167 -89 0 0 0 0 0 0 0 0 0 0 0 0 0 0 0 0 0 -1 0 0 0 0 0 0 0 0 -1 -1
-240 -431 -353 0 0 0 0 0 0 -30 -183 0 0 0 0 0 0 0 0 0 0 0 0 0 0 0 0 0 0 -7 -1 0 0 -4 -4 -10 -88 -26 -11 -54 -10 0 0
-672 0 -944 -719 -112 -369 -409 -186 -5 -148 0 0 0 0 0 0 0 0 0 0 0 0 0 0 0 0 0 0 0 0 -9 -10 0 0 0 0 0 0 -5 -86 0 0 0
-821 -603 -601 -644 -773 -453 -302 -469 -14 0 0 0 0 0 0 0 0 0 0 0 0 0 0 0 0 0 0 0 0 0 0 0 0 0 0 0 0 0 0 -1 0 0 0
-348 -736 -425 -668 -568 -446 -388 -500 0 0 0 0 0 0 0 0 0 0 0 0 0 0 0 0 0 0 0 0 0 0 0 0 0 0 0 0 0 0 0 -1 0 0 -1
-238 -312 -458 -430 -316 -321 -338 -353 -43 -38 -67 0 0 0 0 0 0 0 0 0 0 0 0 0 0 0 0 0 -2 -20 -1 0 0 0 0 0 0 0 0 -11 -8 -5 0
-304 -400 -303 -335 -276 -183 -156 -102 -26 -53 -58 -1 0 0 0 0 0 -1 0 0 0 0 0 -4 0 0 0 0 0 0 0 0 0 0 0 0 -1 -2 -3 0 0 0 0
-206 -355 -323 -308 -324 -284 -214 0 0 0 0 0 0 0 0 0 0 0 0 0 0 0 0 0 0 0 0 0 0 0 0 0 0 0 0 0 0 0 0 0 0 0 0
-130 -405 -322 -356 -274 -98 -104 -211 0 0 0 0 0 0 0 0 0 0 0 0 0 0 0 0 0 0 0 0 0 0 0 0 -3 0 0 0 0 0 0 0 0 0 0
-139 -338 -196 -184 -173 -183 -187 -41 -61 0 0 0 0 0 0 0 0 0 0 0 0 0 0 -1 0 0 0 0 0 0 0 0 0 -1 0 0 0 0 0 0 0 0 0
-177 -164 -72 -94 -143 -150 -15 -4 -46 0 0 0 0 0 0 0 0 0 0 0 0 0 0 0 0 0 0 0 0 0 0 0 -1 0 0 0 0 0 0 0 0 -1 -2
-189 -150 -99 -80 -134 -79 -1 -9 -74 0 0 0 0 0 0 0 0 0 0 -1 -1 0 0 0 0 0 0 0 0 0 0 -1 -3 0 0 0 0 0 0 0 0 0 0
-102 -128 -62 -81 -122 -19 -12 -34 0 0 0 0 0 0 0 0 0 0 0 0 0 0 0 0 0 0 0 0 0 0 0 0 0 0 0 0 0 0 0 0 0 0 0
-277 0 -88 -125 -45 0 -6 -41 0 0 0 0 0 0 0 0 0 0 0 0 0 0 0 0 0 0 0 0 0 0 0 0 0 0 0 0 0 0 0 0 0 0 0
-284 0 -87 -52 0 -68 -48 -26 0 0 0 0 0 0 0 0 0 0 -1 0 0 0 0 0 0 0 0 0 -2 -1 0 0 0 0 0 0 0 0 0 0 0 -7 -6
-303 -225 -139 -36 -112 -104 0 0 0 0 0 0 0 0 0 0 0 0 -1 0 0 0 0 0 0 0 0 0 0 0 0 0 0 0 0 0 0 0 0 0 0 -1 -8
-232 0 0 0 0 0 0 0 0 0 0 0 0 0 0 0 0 -5 -1 0 0 0 0 0 0 0 0 0 0 0 0 0 0 0 0 0 0 0 0 0 0 0 0
0 0 0 0 0 0 0 0 0 0 0 0 0 0 0 0 -1 -1 0 0 0 0 0 0 0 0 0 0 0 0 0 0 0 0 0 0 0 0 0 -3 0 0 0
Wind_Speed
14 13 12 12 13 12 12 12 11 12 11 10 9 9 9 8 7 4 4 5 4 4 4 5 5 5 5 5 4 5 6 7 6 6 5 6 5 8 7 6 5 5 7
13 13 13 13 13 13 13 14 14 13 13 11 11 10 9 8 8 6 5 6 5 4 5 4 3 4 3 3 5 6 6 6 6 3 4 5 4 6 7 8 7 5 4
14 14 14 13 13 14 14 14 14 14 13 12 12 11 10 8 7 6 5 5 5 5 5 4 4 3 3 5 5 3 3 4 4 4 4 3 6 5 7 4 6 6 6
15 15 14 14 12 12 13 13 14 15 15 13 11 10 9 8 7 6 5 5 5 5 4 5 5 4 3 3 3 0 5 5 3 4 5 5 4 5 4 6 7 6 6
13 13 12 11 11 12 12 14 13 14 12 12 11 10 10 8 7 8 6 6 5 5 5 5 5 4 4 4 6 3 4 5 6 6 6 6 7 8 6 6 7 6 7
13 14 14 14 15 15 14 15 14 13 12 10 9 9 9 7 12 6 3 5 6 5 5 4 5 6 7 5 4 4 5 5 5 6 6 7 6 7 6 8 6 7 7
12 13 14 15 16 15 16 15 14 14 13 11 13 9 7 6 9 9 4 6 6 4 2 2 5 4 2 7 10 7 8 6 6 6 6 6 7 7 7 8 8 8 8
13 12 11 10 9 7 7 4 16 14 14 13 14 9 6 7 9 9 5 5 4 4 1 0 2 4 4 7 8 7 7 6 8 8 7 8 8 8 8 8 9 9 10
14 12 12 13 14 10 3 8 17 16 13 11 12 13 9 9 8 9 7 5 5 4 3 2 4 5 6 3 7 5 5 6 6 11 12 11 13 13 11 9 10 7 8
12 15 16 12 11 3 10 13 12 12 12 11 11 11 12 11 9 10 6 4 6 4 4 3 6 3 0 5 7 5 7 7 8 11 10 12 16 14 18 11 10 11 10
15 14 11 10 11 3 7 10 9 8 10 12 10 9 9 11 11 14 9 5 3 5 3 3 4 7 4 5 6 8 9 9 12 12 12 10 9 9 4 8 8 8 10
17 13 8 8 4 9 13 15 15 11 11 10 9 8 5 4 6 9 12 5 2 4 4 2 1 5 4 7 8 7 6 9 10 10 9 9 8 7 7 6 7 8 9
15 4 8 7 6 8 11 11 11 11 10 9 8 9 6 7 3 7 8 6 5 5 5 5 6 7 9 11 14 8 8 9 9 9 9 9 8 7 6 9 9 9 9
10 7 6 7 8 11 8 10 12 10 10 11 9 9 8 7 7 7 8 8 9 7 9 8 4 6 11 11 9 10 7 7 8 9 8 8 7 7 8 9 7 7 9
6 6 5 6 9 9 9 10 11 12 10 9 10 8 9 8 9 5 1 7 7 3 3 5 7 7 8 7 7 7 7 8 7 7 7 8 8 6 7 8 8 8 9
7 5 7 8 8 8 9 8 17 9 12 9 6 6 4 6 11 9 6 7 8 6 4 6 8 8 8 8 8 8 7 6 5 7 8 6 7 8 6 6 6 6 6
7 8 8 9 10 11 10 10 10 6 12 9 8 8 1 11 9 10 8 7 7 5 6 8 7 7 7 8 8 8 7 6 5 7 7 7 6 6 7 4 4 5 6
8 9 9 9 9 8 9 9 10 10 10 8 4 5 8 10 10 9 8 6 5 6 7 7 6 6 7 8 8 8 7 6 6 5 6 6 5 5 6 6 5 6 6
8 10 9 9 9 9 9 10 10 11 10 10 7 5 6 8 7 6 6 7 6 6 4 5 6 6 7 7 7 7 7 7 6 5 7 5 5 5 5 5 6 4 4
8 8 10 9 8 7 10 10 10 10 11 10 9 10 11 8 8 9 8 6 6 4 4 6 5 5 6 6 6 6 6 7 5 6 6 5 6 5 6 5 4 7 6
7 7 8 8 10 11 10 10 10 11 10 6 8 9 11 9 9 6 4 6 5 2 4 5 5 5 5 5 6 7 6 5 5 5 7 5 5 6 3 5 6 7 6
7 6 7 8 10 11 11 11 11 11 9 10 9 8 7 8 6 5 3 3 2 2 3 3 4 5 5 5 6 5 6 5 5 5 7 5 5 6 3 6 8 7 7
7 7 7 7 12 9 9 10 12 11 12 12 9 11 10 9 6 3 3 3 2 2 3 3 4 5 6 7 6 3 3 4 5 6 7 6 6 4 6 7 9 8 8
7 7 8 7 4 11 10 10 9 11 8 10 9 8 9 6 4 4 3 3 2 2 2 3 4 5 7 6 5 2 2 4 6 7 6 6 7 4 8 8 9 10 10
7 8 7 6 7 6 9 12 11 10 8 9 9 8 6 6 4 5 4 3 2 1 1 3 4 8 9 6 4 5 4 5 9 9 7 7 8 10 9 9 10 11 12
5 8 8 8 7 7 8 7 6 6 8 9 8 6 6 5 5 5 4 4 2 2 3 4 6 9 7 3 5 6 4 4 6 4 8 8 8 8 8 11 15 12 12
Wind_Direction
198 197 202 198 197 194 191 190 179 167 164 164 163 160 163 166 161 158 94 110 87 74 53 59 54 23 19 24 20 15 20 348 322 59 13 47 341 347 355 357 358 6 56
195 194 197 196 195 191 191 184 176 170 164 163 162 165 172 170 162 157 175 127 131 94 74 68 61 62 76 34 70 36 40 36 351 350 40 343 7 343 340 319 335 344 357
193 193 194 193 195 195 187 177 175 165 164 166 168 168 170 166 165 159 154 148 115 97 111 119 96 78 45 62 28 35 60 37 11 355 330 3 330 10 325 313 318 320 295
197 196 195 192 192 191 182 178 175 168 166 165 169 164 167 161 166 163 160 148 127 123 121 117 132 114 122 96 67 67 57 329 22 337 335 337 343 9 333 346 323 328 323
195 192 190 183 179 179 170 176 171 171 168 163 161 161 161 166 178 169 172 160 152 142 132 156 163 83 35 351 314 33 328 342 346 342 346 342 1 344 350 332 328 331 296
184 185 176 175 175 174 165 173 168 166 151 148 158 163 177 195 98 103 143 159 159 161 164 191 164 179 208 226 272 318 348 331 335 334 343 356 353 317 347 346 324 345 334
178 181 177 180 175 169 170 170 167 157 144 159 142 169 185 118 134 138 168 159 182 172 189 265 268 88 265 272 194 219 245 244 265 307 300 316 309 319 315 306 340 321 319
172 167 162 157 148 138 167 227 166 149 153 175 135 141 168 121 145 152 182 153 174 163 132 57 337 341 356 323 290 268 264 257 225 234 287 289 280 300 288 281 294 284 273
159 137 130 119 90 100 209 286 253 159 155 140 131 139 155 135 151 152 206 170 142 174 170 219 334 316 74 301 279 280 282 279 200 211 237 256 257 263 264 288 276 265 275
123 123 117 130 145 182 41 293 193 158 139 137 134 146 137 141 146 163 215 173 177 203 197 218 182 287 189 253 283 297 291 295 302 309 285 258 236 231 217 228 267 277 283
124 136 146 184 206 80 90 116 155 156 133 138 132 133 143 158 172 171 202 211 194 207 243 205 130 169 211 250 269 285 294 323 294 285 282 283 285 280 220 192 242 274 289
155 163 203 244 208 160 159 148 149 148 139 143 137 140 165 143 177 176 176 216 114 260 277 272 131 151 235 247 252 269 308 293 282 282 289 293 299 307 305 359 345 295 301
161 198 269 161 165 145 155 141 137 145 147 155 161 165 165 170 184 163 181 172 201 241 278 19 320 294 274 266 243 269 268 272 279 299 299 303 314 327 323 262 256 259 252
184 202 185 161 132 152 159 148 151 156 170 170 162 175 176 170 192 188 200 200 223 225 231 236 246 287 274 269 276 249 245 286 315 310 302 309 307 297 306 2 343 333 311
194 153 143 155 160 156 160 156 167 175 179 170 178 181 173 183 197 207 171 207 213 141 305 263 271 278 287 298 307 308 302 305 308 312 318 314 333 339 320 334 328 308 299
209 162 166 166 159 146 145 107 38 72 95 97 107 155 147 76 118 139 131 78 75 74 248 266 280 294 303 311 315 311 309 306 314 330 304 332 326 327 333 304 282 280 294
214 161 166 172 167 169 159 154 147 79 63 66 117 133 120 142 144 141 134 136 122 144 252 270 285 301 310 313 314 314 313 333 340 289 340 332 320 297 243 284 303 318 323
186 159 175 181 169 158 166 172 160 161 159 142 101 130 114 127 124 137 157 162 213 216 240 251 289 306 310 317 318 316 319 319 310 350 325 296 293 288 301 314 319 315 317
165 176 189 173 164 174 183 177 162 164 152 147 137 151 118 108 125 147 174 253 274 283 307 314 319 322 327 321 321 318 316 300 344 326 292 305 316 296 300 306 321 315 309
175 187 182 168 162 185 178 177 164 154 151 163 165 167 165 165 193 207 212 222 247 269 351 322 327 328 320 320 318 314 311 352 346 305 300 304 277 300 299 322 311 300 303
167 174 192 167 172 186 177 178 160 167 152 148 182 172 157 194 211 203 226 182 237 347 10 335 325 319 302 316 320 314 340 331 302 288 274 277 301 290 316 290 283 293 301
162 169 180 178 191 192 175 171 167 149 157 183 177 136 124 228 239 210 203 198 131 72 21 334 318 330 335 326 303 351 315 302 291 291 279 297 289 287 329 287 287 291 294
164 168 181 205 210 148 161 162 154 159 180 177 174 155 183 212 222 202 156 128 113 38 36 328 339 338 348 331 24 348 309 284 292 288 301 297 291 333 291 286 294 301 297
169 174 187 205 120 165 159 147 159 175 162 173 171 170 180 181 192 136 166 141 94 56 353 349 355 346 334 1 340 1 290 285 289 289 294 290 297 307 290 294 293 304 303
180 167 142 144 148 153 154 156 155 171 199 178 172 168 159 169 158 160 149 130 93 13 26 343 4 350 19 356 350 329 356 318 287 341 287 288 293 296 292 293 300 308 312
163 165 136 136 136 158 144 139 142 174 194 175 158 154 163 162 152 152 155 123 134 102 351 13 14 16 14 17 35 1 342 297 283 314 303 293 293 295 300 311 313 307 309